Regional Weather Roundup
Issued by NWS Charleston, SC

Current Version | Previous Version | Graphics & Text | Print | Product List | Glossary On
Versions: 1 2 3 4 5 6 7 8 9 10 11 12 13 14 15 16 17 18 19 20 21 22 23 24 25 26 27 28 29 30 31 32 33 34 35 36 37 38 39 40 41 42 43 44 45 46 47 48 49 50
000 ASUS42 KCHS 240643 RWRCHS REGIONAL WEATHER ROUNDUP NATIONAL WEATHER SERVICE CHARLESTON SC 200 AM EDT SUN SEP 24 2017 NOTE: "FAIR" INDICATES FEW OR NO CLOUDS BELOW 12,000 FEET WITH NO SIGNIFICANT WEATHER AND/OR OBSTRUCTIONS TO VISIBILITY. NOT ALL STATIONS ARE QUALITY CONTROLLED. USE DATA WITH CAUTION... ESPECIALLY DEWPOINT OBSERVATIONS. SCZ027-030-031-034>040-042>050-240700- ...SOUTHEAST SOUTH CAROLINA... CITY SKY/WX TMP DP RH WIND PRES REMARKS N CHARLESTON CLEAR 71 69 93 NE6 29.98F 6HR MIN TEMP: 71; 6HR MAX TEMP: 78; WATERFRONT PRK N/A 76 73 90 N6 29.82F JOHNS ISLAND FAIR 73 72 94 N5 29.97F PINOPOLIS N/A 75 72 88 NE7 29.92F MONCKS CORNER FAIR 66 66 100 CALM 29.99S FOG SUMMERVILLE FAIR 68 66 94 CALM 30.00S BEAUFORT MCAS CLEAR 74 73 97 NE6 29.97F 6HR MIN TEMP: 74; 6HR MAX TEMP: 79; BEAUFORT ARPT FAIR 77 72 83 NE9 29.97R HILTON HEAD IS CLEAR 79 73 83 NE7 29.97S WALTERBORO CLEAR 66 64 94 CALM 30.00S ALLENDALE NOT AVBL ...SOUTHERN MIDLANDS AND PEE DEE... CITY SKY/WX TMP DP RH WIND PRES REMARKS GEORGETOWN FAIR 68 66 94 N3 30.00S KINGSTREE FAIR 63 61 94 CALM 30.01S ORANGEBURG CLEAR 68 66 93 CALM 30.02S 6HR MIN TEMP: 67; 6HR MAX TEMP: 77; BARNWELL FAIR 66 66 100 CALM 30.01S AIKEN FAIR 64 63 94 CALM 30.06R MANNING FAIR 64 59 82 MISG 30.01F COLUMBIA CLEAR 67 63 87 CALM 30.01F 6HR MIN TEMP: 67; 6HR MAX TEMP: 83; SUMTER CLEAR 66 60 83 NE3 30.00S 6HR MIN TEMP: 65; 6HR MAX TEMP: 76; FLORENCE PTCLDY 68 62 81 N3 30.02F 6HR MIN TEMP: 68; 6HR MAX TEMP: 76; MYRTLE BEACH MOCLDY 72 68 87 N6 30.01S N MYRTLE BEACH PTCLDY 71 69 93 NE6 29.99F 6HR MIN TEMP: 69; 6HR MAX TEMP: 79; $$ GAZ063-065-086>088-099>101-113>116-118-119-134>141-150-240700- ...SOUTHEAST GEORGIA... CITY SKY/WX TMP DP RH WIND PRES REMARKS SAVANNAH ARPT CLEAR 71 70 96 N5 29.97F 6HR MIN TEMP: 71; 6HR MAX TEMP: 78; HUNTER AAF CLEAR 74 71 91 CALM 29.94F 6HR MIN TEMP: 74; 6HR MAX TEMP: 78; FORT STEWART MOCLDY 69 67 93 N5 29.94F 6HR MIN TEMP: 69; 6HR MAX TEMP: 76; STATESBORO CLEAR 68 68 100 CALM 29.98F FOG SYLVANIA CLEAR 68 68 100 CALM 30.00S CLAXTON FAIR 68 68 98 CALM 29.98S FOG ...CSRA...CENTRAL AND FAR SOUTHEAST GEORGIA... CITY SKY/WX TMP DP RH WIND PRES REMARKS THOMSON CLEAR 66 64 95 CALM 30.07S AUGUSTA-BUSH CLEAR 67 66 97 CALM 30.00S 6HR MIN TEMP: 67; 6HR MAX TEMP: 77; AUGUSTA-DANIEL CLEAR 74 67 78 E3 30.02S SWAINSBORO FAIR 68 68 100 CALM 30.01S VIDALIA CLEAR 70 70 100 CALM 29.99S EASTMAN FAIR 69 69 100 CALM 30.02S FOG HAZLEHURST FAIR 71 69 93 CALM 29.97S ALMA CLEAR 70 69 97 CALM 29.96F FOG 6HR MIN TEMP: 70; 6HR MAX TEMP: 75; WAYCROSS PTCLDY 71 68 90 CALM 29.97R JESUP NOT AVBL BAXLEY FAIR 68 68 100 CALM 29.97S BRUNSWICK PTCLDY 75 70 83 NE6 29.95S SAINT SIMONS PTCLDY 80 72 76 NE14 29.94S 6HR MIN TEMP: 80; 6HR MAX TEMP: 80; $$ SCZ027-028-034-036>038-045-046-048>050-GAZ119-141-240700- ...LAKE AND SUPPLEMENTAL COASTAL OBSERVATIONS... STATION/POSITION TIME TEMP WIND PRES WAVE SWELL AIR SEA DIR/SP/G HT/PER HT/PER/DIR (UTC) (F) (DEG/KT/KT) (MB) (FT/S) (FT/S/D) WINYAH BAY 0545 75 10/ 3 1015.0F LAKE MURRAY 0620 72 30/ 1/ 3 1015.9S ACE BASIN NERRS 0545 73 CALM 1015.0S FORT PULASKI 0600 79 81 70/ 11/ 13 1014.9 SAPELO ISLAND 0600 78 CALM 1014.0 $$ ANZ835-935-AMZ111-154-330-350-352-354-370-450-454-472-240700- ...C-MAN AND BUOY OBSERVATIONS... STATION/POSITION TIME TEMP WIND PRES WAVE SWELL AIR SEA DIR/SP/G HT/PER HT/PER/DIR (UTC) (F) (DEG/KT/KT) (MB) (FT/S) (FT/S/D) BUOY 41004 0610 80 82 40/ 14/ 17 1013.7 BUOY 41008 0550 81 80 70/ 16/ 19 1013.1F 6/15 3/110/15 FOLLY BEACH CMAN 0600 77 20/ 9/ 10 1015.5F CAPERS NEARSHORE 0608 77 80 50/ 14/ 19 1014.4F FRIPP NEARSHORE 0608 79 60/ 12/ 16 1021.3S STATION/POSITION TIME TEMP WIND PRES WAVE SWELL AIR SEA DIR/SP/G HT/PER HT/PER/DIR (UTC) (F) (DEG/KT/KT) (MB) (FT/S) (FT/S/D) 5E ST. MARYS GA 0600 82 N/A 5/13 2/110/13 FRYING PAN BUOY 0610 79 82 50/ 17/ 21 1014.6 BUOY 41025 0550 73 75 30/ 16/ 17 1016.0S 7/15 7/170/15 CAPE LOOKOUT NC 0600 75 40/ 16/ 18 1015.9F BUOY 41002 0550 78 80 50/ 21/ 25 1011.3F 16/12 15/130/12 BUOY 41010 0610 50/ 17/ 21 1011.7 ST AUGUSTINE FL 0600 82 82 50/ 16/ 18 1012.4F $$

USA.gov is the U.S. government's official web portal to all federal, state and local government web resources and services.